Вернуться в каталог

STARLINK-5125

АктивенСвязьVLEO
NORAD 53994·PAYLOAD·🇺🇸 United States

Запущен Oct 5, 2022 с Vandenberg Space Force Base

Loading…

Ближайшие Пролёты (ближайшие 24 часа)

TLE

СвежийSource: CelesTrak SupGP

Эпоха: Sep 14, 2026, 22:18 UTC

1 53994C 22125AG  26257.92965278  .00760940  00000+0  35170-1 0  2571
2 53994  53.1597  83.5629 0001228  85.0703  37.0013 15.19278446    13

Отслеживайте STARLINK-5125 в реальном времени с AllMySat

Download on the App Store